Location: Burgerwiesen
(48.6500°N, 15.6167°E)
Time: 02:34:08
(UTC+00:00)

SPOT 3 Rocket - Pass Details

Date: 09 April 2020
Orbit: 779 x 795 km, 98.8° (Epoch: 03 June)

Event Time Altitude Azimuth Distance (km) Brightness Sun altitude
Exits shadow 19:22:44 - 180° (S) 2,653 6.0 -16.3°
Reaches altitude 10° 19:23:30 10° 182° (S) 2,354 5.7 -16.4°
Maximum altitude 19:28:36 54° 259° (W) 959 4.2 -17.1°
Drops below altitude 10° 19:33:42 10° 337° (NNW) 2,363 6.9 -17.8°
Sets 19:36:06 0° 342° (NNW) 3,294 7.7 -18.1°
